ICEYE-X57 (64578 NORAD) Tracking and Keplerian Element Data

This shows tracking and keplerian element data for the satellite.

Feedback or suggestion? Click here.




ElementValue
Catalog64578
NameICEYE-X57
Epoch Orbit2720
Epoch Day354.27753166
Epoch Year2025
RAAN106.0468
Inclination97.7593
Eccentricity0.0002833
Argument of Perigee179.8968
Mean Anonmoly180.2255
Mean Motion14.97139991
Decay Rate4.004E-05
L11 64578U 25135BC 25354.27753166 .00004004 00000+0 35174-3 0 9992
L22 64578 97.7593 106.0468 0002833 179.8968 180.2255 14.97139991 27208



Live tracking and technical data element details for ICEYE-X57 (NORAD 64578). ICEYE-X57 can be tracked NOW for your location showing map with azimuth and elevation plus other details from your city location.







IsCatalogInMostPopularTable: catalog: 64578, numindb: 22
Update: records affected: 1



GetName: 64578 ICEYE-X57

Hit Count: updated at: Mon, 20 Apr 2026 10:28:20 GMT